Saint Bonnet de Bellac- Haute Vienne - France
Donnes mto: mardi, 27/03/2012
Date Horaire Temp. E. Hum. E. P.atmo. Pluie Vent Direction Direction Ensoleilleme Solaire P. de rose Temp au vent Rafales
27/03/2012 00:00 10,8 C 64 % 1026,8 hPa 0,0 mm 0,0 km/h (0 Bft) N-NE 22 0 min 0 W/m 4,3 C 10,8 C 0,0 km/h (0 Bft)
27/03/2012 00:10 10,7 C 64 % 1026,8 hPa 0,0 mm 0,0 km/h (0 Bft) N-NE 22 0 min 0 W/m 4,2 C 10,7 C 0,0 km/h (0 Bft)
27/03/2012 00:20 10,4 C 64 % 1026,8 hPa 0,0 mm 0,0 km/h (0 Bft) N-NE 22 0 min 0 W/m 3,9 C 10,4 C 0,0 km/h (0 Bft)
27/03/2012 00:30 10,2 C 64 % 1026,8 hPa 0,0 mm 0,0 km/h (0 Bft) NE 45 0 min 0 W/m 3,7 C 10,2 C 0,0 km/h (0 Bft)
27/03/2012 00:40 10,2 C 65 % 1026,9 hPa 0,0 mm 0,0 km/h (0 Bft) N-NE 22 0 min 0 W/m 3,9 C 10,2 C 0,0 km/h (0 Bft)
27/03/2012 00:50 10,1 C 65 % 1026,9 hPa 0,0 mm 0,0 km/h (0 Bft) N-NE 22 0 min 0 W/m 3,8 C 10,1 C 0,0 km/h (0 Bft)
27/03/2012 01:00 9,9 C 65 % 1027,0 hPa 0,0 mm 0,0 km/h (0 Bft) N-NE 22 0 min 0 W/m 3,6 C 9,9 C 0,0 km/h (0 Bft)
27/03/2012 01:10 9,7 C 65 % 1026,8 hPa 0,0 mm 0,0 km/h (0 Bft) N-NE 22 0 min 0 W/m 3,4 C 9,7 C 0,0 km/h (0 Bft)
27/03/2012 01:20 9,6 C 65 % 1026,9 hPa 0,0 mm 0,0 km/h (0 Bft) N-NE 22 0 min 0 W/m 3,4 C 9,6 C 0,0 km/h (0 Bft)
27/03/2012 01:30 9,4 C 66 % 1026,9 hPa 0,0 mm 0,7 km/h (0 Bft) N-NE 22 0 min 0 W/m 3,4 C 9,4 C 0,7 km/h (0 Bft)
27/03/2012 01:40 9,4 C 66 % 1026,8 hPa 0,0 mm 0,4 km/h (0 Bft) N-NE 22 0 min 0 W/m 3,4 C 9,4 C 3,6 km/h (1 Bft)
27/03/2012 01:50 9,4 C 66 % 1026,8 hPa 0,0 mm 0,0 km/h (0 Bft) N-NE 22 0 min 0 W/m 3,4 C 9,4 C 0,0 km/h (0 Bft)
27/03/2012 02:00 9,1 C 66 % 1026,7 hPa 0,0 mm 0,0 km/h (0 Bft) N-NE 22 0 min 0 W/m 3,1 C 9,1 C 0,0 km/h (0 Bft)
27/03/2012 02:10 8,9 C 66 % 1026,8 hPa 0,0 mm 0,0 km/h (0 Bft) N-NE 22 0 min 0 W/m 2,9 C 8,9 C 0,0 km/h (0 Bft)
27/03/2012 02:20 8,7 C 67 % 1026,8 hPa 0,0 mm 0,0 km/h (0 Bft) N-NE 22 0 min 0 W/m 2,9 C 8,7 C 0,0 km/h (0 Bft)
27/03/2012 02:30 8,3 C 67 % 1026,8 hPa 0,0 mm 0,0 km/h (0 Bft) N-NE 22 0 min 0 W/m 2,5 C 8,3 C 0,0 km/h (0 Bft)
27/03/2012 02:40 7,9 C 68 % 1026,8 hPa 0,0 mm 0,0 km/h (0 Bft) N-NE 22 0 min 0 W/m 2,4 C 7,9 C 0,0 km/h (0 Bft)
27/03/2012 02:50 7,6 C 69 % 1026,8 hPa 0,0 mm 0,0 km/h (0 Bft) N-NE 22 0 min 0 W/m 2,3 C 7,6 C 0,0 km/h (0 Bft)
27/03/2012 03:02 7,2 C 70 % 1026,8 hPa 0,0 mm 0,0 km/h (0 Bft) N-NE 22 0 min 0 W/m 2,1 C 7,2 C 0,0 km/h (0 Bft)
27/03/2012 03:10 6,8 C 71 % 1026,8 hPa 0,0 mm 0,0 km/h (0 Bft) N-NE 22 0 min 0 W/m 1,9 C 6,8 C 0,0 km/h (0 Bft)
27/03/2012 03:20 6,4 C 72 % 1026,8 hPa 0,0 mm 0,0 km/h (0 Bft) N-NE 22 0 min 0 W/m 1,7 C 6,4 C 0,0 km/h (0 Bft)
27/03/2012 03:30 6,0 C 74 % 1026,7 hPa 0,0 mm 0,0 km/h (0 Bft) N-NE 22 0 min 0 W/m 1,7 C 6,0 C 0,0 km/h (0 Bft)
27/03/2012 03:40 5,8 C 75 % 1026,6 hPa 0,0 mm 0,0 km/h (0 Bft) N-NE 22 0 min 0 W/m 1,7 C 5,8 C 0,0 km/h (0 Bft)
27/03/2012 03:50 5,5 C 75 % 1026,6 hPa 0,0 mm 0,0 km/h (0 Bft) E 90 0 min 0 W/m 1,4 C 5,5 C 0,0 km/h (0 Bft)
27/03/2012 04:00 5,5 C 75 % 1026,7 hPa 0,0 mm 0,0 km/h (0 Bft) NE 45 0 min 0 W/m 1,4 C 5,5 C 0,0 km/h (0 Bft)
27/03/2012 04:10 5,6 C 76 % 1026,6 hPa 0,0 mm 0,0 km/h (0 Bft) E-NE 67 0 min 0 W/m 1,7 C 5,6 C 0,0 km/h (0 Bft)
27/03/2012 04:20 5,6 C 76 % 1026,7 hPa 0,0 mm 0,7 km/h (0 Bft) E-SE 112 0 min 0 W/m 1,7 C 5,6 C 3,2 km/h (1 Bft)
27/03/2012 04:30 5,8 C 76 % 1026,7 hPa 0,0 mm 2,9 km/h (1 Bft) SE 135 0 min 0 W/m 1,9 C 5,8 C 4,3 km/h (1 Bft)
27/03/2012 04:40 5,9 C 76 % 1026,5 hPa 0,0 mm 0,0 km/h (0 Bft) E-NE 67 0 min 0 W/m 2,0 C 5,9 C 0,0 km/h (0 Bft)
27/03/2012 04:50 5,8 C 76 % 1026,5 hPa 0,0 mm 0,0 km/h (0 Bft) E-NE 67 0 min 0 W/m 1,9 C 5,8 C 0,0 km/h (0 Bft)
27/03/2012 05:00 5,7 C 76 % 1026,5 hPa 0,0 mm 0,0 km/h (0 Bft) E-NE 67 0 min 0 W/m 1,8 C 5,7 C 0,0 km/h (0 Bft)
27/03/2012 05:10 5,6 C 77 % 1026,5 hPa 0,0 mm 0,0 km/h (0 Bft) E-SE 112 0 min 0 W/m 1,9 C 5,6 C 0,0 km/h (0 Bft)
27/03/2012 05:20 5,8 C 76 % 1026,6 hPa 0,0 mm 1,8 km/h (1 Bft) E-SE 112 0 min 0 W/m 1,9 C 5,8 C 3,6 km/h (1 Bft)
27/03/2012 05:30 5,9 C 75 % 1026,6 hPa 0,0 mm 0,0 km/h (0 Bft) E 90 0 min 0 W/m 1,8 C 5,9 C 0,0 km/h (0 Bft)
27/03/2012 05:40 6,3 C 76 % 1026,6 hPa 0,0 mm 0,4 km/h (0 Bft) E 90 0 min 0 W/m 2,4 C 6,3 C 0,4 km/h (0 Bft)
27/03/2012 05:50 6,5 C 75 % 1026,7 hPa 0,0 mm 2,9 km/h (1 Bft) E 90 0 min 0 W/m 2,4 C 6,5 C 4,0 km/h (1 Bft)
27/03/2012 06:00 6,5 C 75 % 1026,7 hPa 0,0 mm 0,0 km/h (0 Bft) E 90 0 min 0 W/m 2,4 C 6,5 C 0,0 km/h (0 Bft)
27/03/2012 06:10 6,3 C 75 % 1026,8 hPa 0,0 mm 0,0 km/h (0 Bft) E 90 0 min 0 W/m 2,2 C 6,3 C 0,0 km/h (0 Bft)
27/03/2012 06:20 5,9 C 76 % 1026,8 hPa 0,0 mm 0,0 km/h (0 Bft) E 90 0 min 0 W/m 2,0 C 5,9 C 0,0 km/h (0 Bft)
27/03/2012 06:30 5,6 C 75 % 1026,8 hPa 0,0 mm 0,0 km/h (0 Bft) E 90 0 min 0 W/m 1,5 C 5,6 C 0,0 km/h (0 Bft)
27/03/2012 06:40 5,4 C 76 % 1026,8 hPa 0,0 mm 0,0 km/h (0 Bft) E 90 0 min 0 W/m 1,5 C 5,4 C 0,0 km/h (0 Bft)
27/03/2012 06:50 5,4 C 76 % 1026,8 hPa 0,0 mm 0,0 km/h (0 Bft) E 90 0 min 0 W/m 1,5 C 5,4 C 0,0 km/h (0 Bft)
27/03/2012 07:00 5,5 C 76 % 1026,9 hPa 0,0 mm 2,5 km/h (1 Bft) E-SE 112 0 min 0 W/m 1,6 C 5,5 C 4,3 km/h (1 Bft)
27/03/2012 07:10 5,7 C 76 % 1026,8 hPa 0,0 mm 0,7 km/h (0 Bft) E-SE 112 0 min 0 W/m 1,8 C 5,7 C 3,6 km/h (1 Bft)
27/03/2012 07:20 5,6 C 75 % 1026,8 hPa 0,0 mm 0,0 km/h (0 Bft) E-SE 112 0 min 0 W/m 1,5 C 5,6 C 0,0 km/h (0 Bft)
27/03/2012 07:30 5,4 C 76 % 1026,9 hPa 0,0 mm 0,0 km/h (0 Bft) E-SE 112 0 min 0 W/m 1,5 C 5,4 C 0,0 km/h (0 Bft)
27/03/2012 07:40 5,2 C 76 % 1027,0 hPa 0,0 mm 0,0 km/h (0 Bft) E-SE 112 0 min 0 W/m 1,3 C 5,2 C 0,0 km/h (0 Bft)
27/03/2012 07:50 4,8 C 77 % 1027,1 hPa 0,0 mm 0,0 km/h (0 Bft) E-SE 112 0 min 0 W/m 1,1 C 4,8 C 0,0 km/h (0 Bft)
27/03/2012 08:00 4,4 C 77 % 1027,0 hPa 0,0 mm 0,0 km/h (0 Bft) E-SE 112 2 min 0 W/m 0,7 C 4,4 C 0,0 km/h (0 Bft)
27/03/2012 08:10 4,3 C 78 % 1027,2 hPa 0,0 mm 0,0 km/h (0 Bft) E-NE 67 2 min 0 W/m 0,8 C 4,3 C 0,0 km/h (0 Bft)
27/03/2012 08:20 4,2 C 79 % 1027,2 hPa 0,0 mm 0,0 km/h (0 Bft) E 90 2 min 0 W/m 0,9 C 4,2 C 0,0 km/h (0 Bft)
27/03/2012 08:30 4,3 C 79 % 1027,3 hPa 0,0 mm 0,0 km/h (0 Bft) E 90 2 min 0 W/m 1,0 C 4,3 C 0,0 km/h (0 Bft)
27/03/2012 08:40 4,6 C 79 % 1027,3 hPa 0,0 mm 0,0 km/h (0 Bft) E 90 2 min 0 W/m 1,3 C 4,6 C 0,0 km/h (0 Bft)
27/03/2012 08:50 5,1 C 79 % 1027,3 hPa 0,0 mm 0,0 km/h (0 Bft) E-NE 67 2 min 0 W/m 1,8 C 5,1 C 0,0 km/h (0 Bft)
27/03/2012 09:00 5,7 C 79 % 1027,6 hPa 0,0 mm 0,0 km/h (0 Bft) E-NE 67 2 min 0 W/m 2,3 C 5,7 C 0,0 km/h (0 Bft)
27/03/2012 09:10 6,4 C 77 % 1027,6 hPa 0,0 mm 0,0 km/h (0 Bft) E 90 2 min 0 W/m 2,7 C 6,4 C 0,0 km/h (0 Bft)
27/03/2012 09:20 7,3 C 76 % 1027,6 hPa 0,0 mm 0,0 km/h (0 Bft) E 90 2 min 0 W/m 3,4 C 7,3 C 0,0 km/h (0 Bft)
27/03/2012 09:30 8,1 C 74 % 1027,7 hPa 0,0 mm 0,0 km/h (0 Bft) E-SE 112 2 min 0 W/m 3,8 C 8,1 C 0,0 km/h (0 Bft)
27/03/2012 09:40 8,9 C 72 % 1027,7 hPa 0,0 mm 0,4 km/h (0 Bft) E-NE 67 2 min 0 W/m 4,1 C 8,9 C 0,4 km/h (0 Bft)
27/03/2012 09:50 9,5 C 71 % 1027,7 hPa 0,0 mm 0,4 km/h (0 Bft) E-NE 67 2 min 0 W/m 4,5 C 9,5 C 3,2 km/h (1 Bft)
27/03/2012 10:00 10,1 C 70 % 1027,7 hPa 0,0 mm 0,4 km/h (0 Bft) E-NE 67 2 min 0 W/m 4,9 C 10,1 C 3,6 km/h (1 Bft)
27/03/2012 10:10 10,8 C 69 % 1027,9 hPa 0,0 mm 0,7 km/h (0 Bft) NE 45 2 min 0 W/m 5,3 C 10,8 C 3,2 km/h (1 Bft)
27/03/2012 10:20 11,4 C 68 % 1028,0 hPa 0,0 mm 0,7 km/h (0 Bft) N 360 2 min 0 W/m 5,7 C 11,4 C 0,7 km/h (0 Bft)
27/03/2012 10:30 12,2 C 67 % 1028,0 hPa 0,0 mm 0,0 km/h (0 Bft) NE 45 2 min 0 W/m 6,3 C 12,2 C 0,0 km/h (0 Bft)
27/03/2012 10:40 13,0 C 64 % 1028,0 hPa 0,0 mm 0,0 km/h (0 Bft) NE 45 2 min 0 W/m 6,4 C 13,0 C 0,0 km/h (0 Bft)
27/03/2012 10:50 13,9 C 63 % 1028,2 hPa 0,0 mm 0,0 km/h (0 Bft) NE 45 2 min 0 W/m 7,0 C 13,9 C 0,0 km/h (0 Bft)
27/03/2012 11:00 14,8 C 62 % 1028,2 hPa 0,0 mm 1,1 km/h (1 Bft) E-NE 67 2 min 0 W/m 7,6 C 14,8 C 1,4 km/h (1 Bft)
27/03/2012 11:10 15,8 C 60 % 1028,2 hPa 0,0 mm 0,0 km/h (0 Bft) E-NE 67 2 min 0 W/m 8,1 C 15,8 C 0,0 km/h (0 Bft)
27/03/2012 11:20 16,7 C 58 % 1028,7 hPa 0,0 mm 1,4 km/h (1 Bft) NE 45 2 min 0 W/m 8,4 C 16,7 C 3,6 km/h (1 Bft)
27/03/2012 11:30 17,4 C 58 % 1028,6 hPa 0,0 mm 0,0 km/h (0 Bft) NE 45 2 min 0 W/m 9,1 C 17,4 C 3,2 km/h (1 Bft)
27/03/2012 11:40 18,3 C 56 % 1028,6 hPa 0,0 mm 0,0 km/h (0 Bft) NE 45 2 min 0 W/m 9,4 C 18,3 C 0,0 km/h (0 Bft)
27/03/2012 11:50 19,2 C 54 % 1028,6 hPa 0,0 mm 0,0 km/h (0 Bft) NE 45 2 min 0 W/m 9,7 C 19,2 C 2,9 km/h (1 Bft)
27/03/2012 12:00 19,9 C 52 % 1028,6 hPa 0,0 mm 0,4 km/h (0 Bft) N-NE 22 2 min 0 W/m 9,7 C 19,9 C 3,2 km/h (1 Bft)
27/03/2012 12:10 20,6 C 49 % 1028,6 hPa 0,0 mm 2,9 km/h (1 Bft) N-NE 22 2 min 0 W/m 9,5 C 20,6 C 4,3 km/h (1 Bft)
27/03/2012 12:20 21,1 C 48 % 1028,5 hPa 0,0 mm 3,6 km/h (1 Bft) NE 45 2 min 0 W/m 9,7 C 21,1 C 4,7 km/h (1 Bft)
27/03/2012 12:30 21,6 C 47 % 1028,4 hPa 0,0 mm 6,5 km/h (2 Bft) N-NE 22 2 min 0 W/m 9,8 C 21,6 C 8,6 km/h (2 Bft)
27/03/2012 12:40 21,8 C 46 % 1028,4 hPa 0,0 mm 2,5 km/h (1 Bft) NE 45 2 min 0 W/m 9,7 C 21,8 C 6,5 km/h (2 Bft)
27/03/2012 12:50 22,0 C 45 % 1028,4 hPa 0,0 mm 4,7 km/h (1 Bft) NE 45 2 min 0 W/m 9,5 C 22,0 C 7,9 km/h (2 Bft)
27/03/2012 13:00 22,1 C 41 % 1028,3 hPa 0,0 mm 6,5 km/h (2 Bft) NE 45 2 min 0 W/m 8,2 C 22,1 C 7,9 km/h (2 Bft)
27/03/2012 13:10 22,3 C 42 % 1028,2 hPa 0,0 mm 3,6 km/h (1 Bft) NE 45 2 min 0 W/m 8,8 C 22,3 C 5,8 km/h (2 Bft)
27/03/2012 13:20 22,5 C 41 % 1028,2 hPa 0,0 mm 8,6 km/h (2 Bft) NE 45 2 min 0 W/m 8,6 C 22,5 C 8,6 km/h (2 Bft)
27/03/2012 13:30 22,4 C 39 % 1028,1 hPa 0,0 mm 5,0 km/h (1 Bft) N-NE 22 2 min 0 W/m 7,8 C 22,4 C 7,2 km/h (2 Bft)
27/03/2012 13:40 22,6 C 38 % 1028,0 hPa 0,0 mm 5,0 km/h (1 Bft) N-NE 22 2 min 0 W/m 7,6 C 22,6 C 8,3 km/h (2 Bft)
27/03/2012 13:50 22,8 C 37 % 1027,9 hPa 0,0 mm 7,9 km/h (2 Bft) NE 45 2 min 0 W/m 7,3 C 22,8 C 7,9 km/h (2 Bft)
27/03/2012 14:00 22,8 C 37 % 1027,9 hPa 0,0 mm 9,4 km/h (2 Bft) N-NE 22 2 min 0 W/m 7,3 C 22,8 C 11,2 km/h (2 Bft)
27/03/2012 14:10 22,8 C 36 % 1027,8 hPa 0,0 mm 7,9 km/h (2 Bft) NE 45 2 min 0 W/m 6,9 C 22,8 C 12,2 km/h (2 Bft)
27/03/2012 14:20 22,6 C 37 % 1027,8 hPa 0,0 mm 9,7 km/h (2 Bft) NE 45 2 min 0 W/m 7,2 C 22,6 C 13,0 km/h (3 Bft)
27/03/2012 14:30 22,5 C 38 % 1027,7 hPa 0,0 mm 6,5 km/h (2 Bft) NE 45 2 min 0 W/m 7,5 C 22,5 C 8,6 km/h (2 Bft)
27/03/2012 14:40 22,6 C 37 % 1027,6 hPa 0,0 mm 10,1 km/h (2 Bft) E 90 2 min 0 W/m 7,2 C 22,6 C 12,6 km/h (3 Bft)
27/03/2012 14:50 22,5 C 36 % 1027,5 hPa 0,0 mm 7,2 km/h (2 Bft) N-NE 22 2 min 0 W/m 6,7 C 22,5 C 9,7 km/h (2 Bft)
27/03/2012 15:00 22,4 C 37 % 1027,4 hPa 0,0 mm 7,2 km/h (2 Bft) NE 45 2 min 0 W/m 7,0 C 22,4 C 10,8 km/h (2 Bft)
27/03/2012 15:10 22,5 C 36 % 1027,4 hPa 0,0 mm 4,0 km/h (1 Bft) N-NE 22 2 min 0 W/m 6,7 C 22,5 C 6,5 km/h (2 Bft)
27/03/2012 15:20 22,6 C 36 % 1027,3 hPa 0,0 mm 8,6 km/h (2 Bft) E-NE 67 2 min 0 W/m 6,8 C 22,6 C 13,7 km/h (3 Bft)
27/03/2012 15:30 22,5 C 35 % 1027,2 hPa 0,0 mm 6,5 km/h (2 Bft) NE 45 2 min 0 W/m 6,3 C 22,5 C 8,6 km/h (2 Bft)
27/03/2012 15:40 22,5 C 35 % 1027,3 hPa 0,0 mm 2,9 km/h (1 Bft) E-NE 67 2 min 0 W/m 6,3 C 22,5 C 2,9 km/h (1 Bft)
27/03/2012 15:50 22,4 C 35 % 1027,2 hPa 0,0 mm 6,5 km/h (2 Bft) E-NE 67 2 min 0 W/m 6,2 C 22,4 C 12,6 km/h (3 Bft)
27/03/2012 16:00 22,3 C 33 % 1027,0 hPa 0,0 mm 8,6 km/h (2 Bft) NE 45 2 min 0 W/m 5,2 C 22,3 C 11,9 km/h (2 Bft)
27/03/2012 16:10 22,1 C 34 % 1027,0 hPa 0,0 mm 6,1 km/h (2 Bft) N-NE 22 2 min 0 W/m 5,5 C 22,1 C 10,1 km/h (2 Bft)
27/03/2012 16:20 22,2 C 34 % 1027,0 hPa 0,0 mm 4,0 km/h (1 Bft) NE 45 2 min 0 W/m 5,6 C 22,2 C 6,5 km/h (2 Bft)
27/03/2012 16:30 22,1 C 33 % 1026,9 hPa 0,0 mm 6,5 km/h (2 Bft) NE 45 2 min 0 W/m 5,1 C 22,1 C 7,6 km/h (2 Bft)
27/03/2012 16:40 22,1 C 34 % 1026,9 hPa 0,0 mm 6,5 km/h (2 Bft) NE 45 2 min 0 W/m 5,5 C 22,1 C 9,0 km/h (2 Bft)
27/03/2012 16:50 21,9 C 34 % 1026,8 hPa 0,0 mm 8,3 km/h (2 Bft) NE 45 2 min 0 W/m 5,3 C 21,9 C 12,6 km/h (3 Bft)
27/03/2012 17:00 21,8 C 35 % 1026,7 hPa 0,0 mm 9,0 km/h (2 Bft) N-NE 22 2 min 0 W/m 5,7 C 21,8 C 9,0 km/h (2 Bft)
27/03/2012 17:10 21,7 C 35 % 1026,7 hPa 0,0 mm 7,2 km/h (2 Bft) N 360 2 min 0 W/m 5,6 C 21,7 C 15,5 km/h (3 Bft)
27/03/2012 17:20 21,4 C 36 % 1026,8 hPa 0,0 mm 5,8 km/h (2 Bft) NE 45 2 min 0 W/m 5,7 C 21,4 C 9,7 km/h (2 Bft)
27/03/2012 17:30 21,3 C 38 % 1026,7 hPa 0,0 mm 7,9 km/h (2 Bft) N-NE 22 2 min 0 W/m 6,4 C 21,3 C 7,9 km/h (2 Bft)
27/03/2012 17:40 21,2 C 38 % 1026,7 hPa 0,0 mm 6,1 km/h (2 Bft) N-NE 22 2 min 0 W/m 6,3 C 21,2 C 10,1 km/h (2 Bft)
27/03/2012 17:50 21,0 C 38 % 1026,5 hPa 0,0 mm 7,9 km/h (2 Bft) N-NE 22 2 min 0 W/m 6,1 C 21,0 C 10,8 km/h (2 Bft)
27/03/2012 18:00 20,8 C 39 % 1026,6 hPa 0,0 mm 2,9 km/h (1 Bft) NE 45 2 min 0 W/m 6,3 C 20,8 C 6,5 km/h (2 Bft)
27/03/2012 18:10 20,6 C 39 % 1026,5 hPa 0,0 mm 6,8 km/h (2 Bft) N-NE 22 2 min 0 W/m 6,2 C 20,6 C 8,3 km/h (2 Bft)
27/03/2012 18:20 20,4 C 38 % 1026,6 hPa 0,0 mm 7,6 km/h (2 Bft) N-NE 22 2 min 0 W/m 5,6 C 20,4 C 10,4 km/h (2 Bft)
27/03/2012 18:30 20,3 C 38 % 1026,6 hPa 0,0 mm 7,9 km/h (2 Bft) E-NE 67 2 min 0 W/m 5,5 C 20,3 C 10,1 km/h (2 Bft)
27/03/2012 18:40 20,2 C 38 % 1026,5 hPa 0,0 mm 7,2 km/h (2 Bft) E-NE 67 2 min 0 W/m 5,4 C 20,2 C 13,0 km/h (3 Bft)
27/03/2012 18:50 19,9 C 36 % 1026,6 hPa 0,0 mm 9,4 km/h (2 Bft) N-NE 22 2 min 0 W/m 4,4 C 19,9 C 17,3 km/h (3 Bft)
27/03/2012 19:00 19,8 C 37 % 1026,6 hPa 0,0 mm 2,2 km/h (1 Bft) N-NE 22 2 min 0 W/m 4,7 C 19,8 C 6,5 km/h (2 Bft)
27/03/2012 19:10 19,6 C 36 % 1026,6 hPa 0,0 mm 2,9 km/h (1 Bft) NE 45 2 min 0 W/m 4,1 C 19,6 C 4,3 km/h (1 Bft)
27/03/2012 19:20 19,5 C 37 % 1026,4 hPa 0,0 mm 4,3 km/h (1 Bft) NE 45 2 min 0 W/m 4,4 C 19,5 C 6,5 km/h (2 Bft)
27/03/2012 19:30 19,2 C 38 % 1026,4 hPa 0,0 mm 5,0 km/h (1 Bft) N-NE 22 2 min 0 W/m 4,5 C 19,2 C 8,6 km/h (2 Bft)
27/03/2012 19:40 18,8 C 38 % 1026,5 hPa 0,0 mm 9,4 km/h (2 Bft) N-NE 22 2 min 0 W/m 4,2 C 18,8 C 9,4 km/h (2 Bft)
27/03/2012 19:50 18,5 C 39 % 1026,6 hPa 0,0 mm 1,1 km/h (1 Bft) NE 45 2 min 0 W/m 4,3 C 18,5 C 3,2 km/h (1 Bft)
27/03/2012 20:00 18,0 C 40 % 1026,5 hPa 0,0 mm 2,9 km/h (1 Bft) NE 45 2 min 0 W/m 4,2 C 18,0 C 4,7 km/h (1 Bft)
27/03/2012 20:10 17,4 C 41 % 1026,6 hPa 0,0 mm 0,7 km/h (0 Bft) NE 45 0 min 0 W/m 4,0 C 17,4 C 0,7 km/h (0 Bft)
27/03/2012 20:20 16,8 C 42 % 1026,7 hPa 0,0 mm 2,5 km/h (1 Bft) NE 45 0 min 0 W/m 3,8 C 16,8 C 4,0 km/h (1 Bft)
27/03/2012 20:30 16,3 C 42 % 1026,6 hPa 0,0 mm 0,4 km/h (0 Bft) NE 45 0 min 0 W/m 3,4 C 16,3 C 3,6 km/h (1 Bft)
27/03/2012 20:40 15,8 C 43 % 1026,6 hPa 0,0 mm 0,0 km/h (0 Bft) NE 45 0 min 0 W/m 3,3 C 15,8 C 0,0 km/h (0 Bft)
27/03/2012 20:50 15,3 C 44 % 1026,7 hPa 0,0 mm 0,0 km/h (0 Bft) NE 45 0 min 0 W/m 3,1 C 15,3 C 0,0 km/h (0 Bft)
27/03/2012 21:00 14,8 C 45 % 1026,7 hPa 0,0 mm 0,0 km/h (0 Bft) NE 45 0 min 0 W/m 3,0 C 14,8 C 0,0 km/h (0 Bft)
27/03/2012 21:10 14,2 C 46 % 1026,8 hPa 0,0 mm 0,0 km/h (0 Bft) NE 45 0 min 0 W/m 2,8 C 14,2 C 0,0 km/h (0 Bft)
27/03/2012 21:20 13,4 C 47 % 1026,8 hPa 0,0 mm 0,0 km/h (0 Bft) NE 45 0 min 0 W/m 2,3 C 13,4 C 0,0 km/h (0 Bft)
27/03/2012 21:30 12,9 C 48 % 1026,9 hPa 0,0 mm 0,0 km/h (0 Bft) N-NE 22 0 min 0 W/m 2,2 C 12,9 C 0,0 km/h (0 Bft)
27/03/2012 21:40 12,8 C 49 % 1026,8 hPa 0,0 mm 1,8 km/h (1 Bft) NE 45 0 min 0 W/m 2,4 C 12,8 C 6,8 km/h (2 Bft)
27/03/2012 21:50 12,9 C 49 % 1026,9 hPa 0,0 mm 2,2 km/h (1 Bft) N-NE 22 0 min 0 W/m 2,5 C 12,9 C 4,3 km/h (1 Bft)
27/03/2012 22:00 13,2 C 49 % 1027,0 hPa 0,0 mm 2,5 km/h (1 Bft) NE 45 0 min 0 W/m 2,7 C 13,2 C 4,0 km/h (1 Bft)
27/03/2012 22:10 13,3 C 49 % 1027,0 hPa 0,0 mm 2,9 km/h (1 Bft) N-NE 22 0 min 0 W/m 2,8 C 13,3 C 4,3 km/h (1 Bft)
27/03/2012 22:20 13,2 C 49 % 1027,0 hPa 0,0 mm 0,4 km/h (0 Bft) NE 45 0 min 0 W/m 2,7 C 13,2 C 3,2 km/h (1 Bft)
27/03/2012 22:30 13,0 C 49 % 1027,1 hPa 0,0 mm 0,0 km/h (0 Bft) N-NE 22 0 min 0 W/m 2,5 C 13,0 C 0,0 km/h (0 Bft)
27/03/2012 22:40 12,8 C 50 % 1027,1 hPa 0,0 mm 1,4 km/h (1 Bft) NE 45 0 min 0 W/m 2,6 C 12,8 C 4,0 km/h (1 Bft)
27/03/2012 22:50 12,6 C 50 % 1027,2 hPa 0,0 mm 0,0 km/h (0 Bft) NE 45 0 min 0 W/m 2,5 C 12,6 C 0,0 km/h (0 Bft)
27/03/2012 23:00 12,1 C 51 % 1027,2 hPa 0,0 mm 0,0 km/h (0 Bft) NE 45 0 min 0 W/m 2,3 C 12,1 C 0,0 km/h (0 Bft)
27/03/2012 23:10 11,7 C 52 % 1027,1 hPa 0,0 mm 0,0 km/h (0 Bft) NE 45 0 min 0 W/m 2,2 C 11,7 C 0,0 km/h (0 Bft)
27/03/2012 23:20 11,3 C 52 % 1027,1 hPa 0,0 mm 0,0 km/h (0 Bft) NE 45 0 min 0 W/m 1,8 C 11,3 C 0,0 km/h (0 Bft)
27/03/2012 23:30 10,8 C 53 % 1027,1 hPa 0,0 mm 0,0 km/h (0 Bft) NE 45 0 min 0 W/m 1,6 C 10,8 C 0,0 km/h (0 Bft)
27/03/2012 23:40 10,6 C 54 % 1027,1 hPa 0,0 mm 0,0 km/h (0 Bft) NE 45 0 min 0 W/m 1,7 C 10,6 C 0,0 km/h (0 Bft)
27/03/2012 23:50 10,3 C 55 % 1027,0 hPa 0,0 mm 0,0 km/h (0 Bft) NE 45 0 min 0 W/m 1,7 C 10,3 C 0,0 km/h (0 Bft)
_ Min-Heure 08:20 16:30 19:30 - 23:50 - - - - 08:00 08:20 23:50
Minimum _ 4,2 C 33 % 1026,4 hPa - 0,0 km/h (0 Bft) - - - - 0,7 C 4,2 C 0,0 km/h (0 Bft)
_ Max-Heure 14:10 09:00 11:20 23:50 14:40 - - 20:00 23:50 12:30 14:10 18:50
Maximum _ 22,8 C 79 % 1028,7 hPa 0,0 mm 10,1 km/h
E (2 Bft)
- - 2 min 0 W/m 9,8 C 22,8 C 17,3 km/h
N-NE (3 Bft)
Moyenne _ 13,5 C 56 % 1027,1 hPa #0,0 mm 2,3 km/h (1 Bft) NE - #2:26 h 0 W/m 4,2 C 13,5 C 3,6 km/h (1 Bft)
Saint Bonnet de Bellac- Haute Vienne - France